www.pogodaiklimat.ru

ПОГОДА в Харлане, KY

  • Прогноз погоды в Харлане
  • Монитор погоды в Харлане
  • Климат в Харлане

АРХИВ ПОГОДЫ в Харлане

Время (UTC), дата Ветер
(напр.,м/с)
 
Видим.   Явления Облачность Т
(С)
Тd
(С)
f
(%)
Тe
(С)
Тes
(С)
Комфортность

P
(гПа)

Po
(гПа)
Тmin
(С)
Tmax
(С)
R
(мм)
SD
(см)
17:35 23.05 ЮЗ  16 км    5/5 1170 м  +29.2  +18.1  51  +34  +43  очень
душно 
  967.4         
17:55 23.05 ЮЗ  16 км    5/5 1380 м
[средняя] 
+29.0  +17.8  51  +33  +40  очень
душно 
  967.1         
18:15 23.05 ЮЗ  16 км    ясно  +29.9  +16.9  46  +34  +47  очень
душно 
  966.8         
18:35 23.05 ЮЗ  16 км    ясно  +29.5  +16.9  47  +33  +50  душно    966.8         
18:55 23.05 ЮЗ  16 км    5/5 1500 м
[средняя] 
+30.0  +17.5  47  +34  +41  очень
душно 
  966.5         
19:15 23.05 З  16 км    8/8 1500 м  +29.8  +17.6  48  +34  +37  очень
душно 
  966.5         
19:35 23.05 З  16 км    5/5 1500 м
[средняя] 
+29.1  +17.2  49  +33  +40  очень
душно 
  966.5         
19:55 23.05 ЮЗ  16 км    5/5 1800 м
[средняя] 
+29.7  +17.7  49  +34  +42  очень
душно 
  966.5         
20:15 23.05 ЮЗ  16 км    5/5 1950 м
[средняя] 
+28.6  +17.4  51  +33  +37  очень
душно 
  966.5         
20:35 23.05 З  16 км    5/5 1950 м
[средняя] 
+29.5  +17.6  49  +34  +39  очень
душно 
  965.8         
20:55 23.05 З  16 км    5/5 1950 м  +29.1  +16.7  47  +33  +37  очень
душно 
  965.8         
21:15 23.05 З  16 км    5/5 1950 м  +29.5  +16.2  45  +33  +35  душно    965.5         
21:35 23.05 З  16 км    ясно  +29.5  +16.1  44  +33  +36  душно    965.5         
21:55 23.05 З  16 км    ясно  +29.4  +16.0  44  +32  +38  душно    965.5         
22:15 23.05 З  16 км    ясно  +28.1  +16.4  49  +32  +34  душно    965.5         
22:35 23.05 З  16 км    ясно  +27.7  +16.4  50  +31  +33  душно    965.5         
22:55 23.05 ЮЗ  16 км    ясно  +27.0  +16.1  51  +30  +33  душно    965.2  +27.0  +30.2     
23:15 23.05   16 км    ясно  +26.5  +16.3  53  +30  +30  душно    965.2         
23:35 23.05   16 км    ясно  +24.5  +16.6  61  +28  +28  душно    965.2         
23:55 23.05   16 км    ясно  +24.3  +16.8  63  +28  +28  душно    965.2         
00:15 24.05 ЮВ  16 км    ясно  +22.3  +17.4  74  +27  +27  душно    965.8         
00:35 24.05   16 км    ясно  +22.6  +17.6  73  +28  +28  душно    965.5         
00:55 24.05   16 км    ясно  +21.7  +17.5  77  +26  +26  душно    965.5         
01:15 24.05   16 км    ясно  +20.5  +17.5  83  +24  +24  комфорт    966.2         
01:35 24.05   16 км    ясно  +20.2  +17.4  84  +23  +23  комфорт    966.5         
01:55 24.05   16 км    ясно  +19.7  +17.4  87  +22  +22  комфорт    966.5         
02:15 24.05   16 км    ясно  +19.9  +17.6  87  +22  +22  комфорт    966.5         
02:35 24.05   16 км    ясно  +19.3  +17.6  90  +21  +21  комфорт    966.5         
02:55 24.05   16 км    ясно  +18.8  +17.5  92  +20  +20      966.5         
03:15 24.05   16 км    ясно  +18.6  +17.3  92  +19  +19      966.2         
03:35 24.05   16 км    ясно  +18.3  +17.2  93  +19  +19      966.2         
03:55 24.05   16 км    ясно  +18.0  +17.2  95  +18  +18      966.2         
04:15 24.05   16 км    ясно  +17.9  +17.1  95  +18  +18      966.2         
04:35 24.05   11 км    ясно  +17.5  +17.0  97  +17  +17      966.2         
04:55 24.05   11 км    ясно  +17.2  +16.8  97  +17  +17      966.2  +17.2  +27.0     
05:15 24.05   11 км    ясно  +17.2  +16.7  97  +17  +17      966.2         
05:35 24.05   11 км    ясно  +17.1  +16.6  97  +17  +17      965.8         
05:55 24.05   11 км    ясно  +16.7  +16.4  98  +17  +17      965.8         
06:15 24.05   11 км    ясно  +16.6  +16.3  98  +16  +16      965.5         
06:35 24.05   11 км    ясно  +16.5  +16.1  97  +16  +16      965.8         
06:55 24.05   8 км    ясно  +16.3  +16.0  98  +16  +16      965.8         
07:15 24.05   8 км    5/5 60 м  +16.1  +16.0  99  +16  +16      965.8         
07:35 24.05   800 м    10/10 60 м  +16.1  +16.0  99  +16  +16      965.8         
07:55 24.05   5 км    8/8 60 м  +15.8  +15.7  99  +16  +16      965.8         
08:15 24.05   3 км    н/о  +16.0  +16.0  100  +16  +16      965.8         
08:35 24.05   1 км    н/о  +16.0  +16.0  100  +16  +16      966.2         
08:55 24.05   н/о    10/10 30 м  +16.0  +16.0  100  +16  +16      966.2         
09:15 24.05   н/о    10/10 30 м  +16.0  +16.0  100  +16  +16      966.5         

 

Местоположение метеостанции Tucker-Guthrie Memorial Airport: широта 36.8593 долгота -83.3585 высота над уровнем моря 473 м.

В архиве по умолчанию представлена погода в Харлане за последние 1-2 суток. Обновление информации о фактической погоде в базе происходит ежечасно! Архивные данные за месяц целиком и за предыдущие месяцы Вы можете получить, выбрав интересующий диапазон дат из раскрывающегося списка и нажав кнопку "Ввод!".

Внимание! Архив погоды МЕТАР в базе сайта хранится не более 60 дней. Нет смысла пытаться выбрать более раннюю дату.

Внимание! Время в таблицах - всемирное. Для получения местного времени необходимо прибавить поправку, которая в Харлане равна -5 ч.

Ветер - указаны скорость ветра в м/с и направление, откуда дует ветер: С - северный, СВ - северо-восточный, В - восточный, ЮВ - юго-восточный, Ю - южный, ЮЗ - юго-западный, З - западный, СЗ - северо-западный.
Видимость - горизонтальная дальность видимости в метрах или километрах. При видимости от 1 до 10 км при отсутствии осадков обычно наблюдается дымка, при ухудшении видимости до 1 км и менее - туман. В сухую погоду видимость может ухудшаться дымом, пылью или мглою.
Атмосферные явления - указаны явления, наблюдавшиеся в указанный момент времени.
Облачность - указаны через наклонную черту верхняя и нижняя облачность в баллах и высота нижней границы облаков в метрах. Внимание: облачность, как и прочие метеорологические величины в США измеряются автоматическими метеостанциями. Указанные значения в баллах носят условный характер и показывают процент времени, в течение которого, в среднем, лазерный луч высотомера отражался от облаков обратно.
T - Температура воздуха - температура, измеренная на высоте 2 м над землей.
Td - Температура точки росы - температура, при понижении до которой содержащийся в воздухе водяной пар достигнет насыщения.
f - Относительная влажность воздуха - влажноcть воздуха, измеренная на высоте 2 м над землей.
Te - Эффективная температура - температура, которую ощущает одетый по сезону человек в тени. Характеристика душности погоды. При расчете учитывается влияние влажности воздуха и скорости ветра на теплоощущения человека.
Tes - Эффективная температура на солнце - температура, которую ощущает человек, с поправкой на солнечный нагрев. Характеристика знойности погоды. Зависит от высоты солнца над горизонтом, облачности и скорости ветра. Ночью, в пасмурную погоду, а также при ветре 12 м/с и более поправка равна нулю.
P - Атмосферное давление - приведенное к уровню моря атмосферное давление.
Po - Атмосферное давление - измеренное на уровне метеостанции атмосферное давление.
Tmin - Минимальная температура - минимум температуры воздуха на высоте 2 м над землей.
Tmax - Максимальная температура - максимум температуры воздуха на высоте 2 м над землей.
R - Количество осадков - Количество выпавших осадков за 3 или 6 часов, мм.
SD - Снежный покров - Высота снежного покрова, см.